Akron, New York, United States (14001)
Lat: 43.02N, Lon: 78.5W
Wx Zone: NYZ010
Local Info
Past Weather Observations for Today

NOTE: This archive is for the closest National Weather Service station to Akron. Information may differ from the station used for current weather conditions.

Time Weather Temperature Dewpoint Humidity Pressure Winds Precip Visibility
16:54
Partly Cloudy
46°F / 8°C 27°F / -3°C 46% 29.98 in
(1015 mb)
NW 15 mph
(NW 24 kph)
- 10SM
16:20
Partly Cloudy
46°F / 8°C 27°F / -3°C 46% 29.95 in
(1014 mb)
NW 15 mph
(NW 24 kph)
- 10SM
15:54
Partly Cloudy
45°F / 7°C 34°F / 1°C 66% 29.95 in
(1014 mb)
SW 11.5 mph
(SW 19 kph)
- 10SM
14:54
Partly Cloudy
43°F / 6°C 34°F / 1°C 71% 29.95 in
(1014 mb)
SW 13.8 mph
(SW 22 kph)
- 10SM
13:54
Mostly Cloudy
45°F / 7°C 32°F / 0°C 61% 29.95 in
(1014 mb)
W 12.7 mph
(W 20 kph)
- 10SM
12:54
Mostly Cloudy
43°F / 6°C 30°F / -1°C 61% 29.95 in
(1014 mb)
NW 17.3 mph
(NW 28 kph)
- 10SM
12:52
Mostly Cloudy
43°F / 6°C 30°F / -1°C 61% 29.95 in
(1014 mb)
NW 16.1 mph
(NW 26 kph)
- 10SM
11:54
Mostly Cloudy
37°F / 3°C 30°F / -1°C 75% 29.95 in
(1014 mb)
NW 11.5 mph
(NW 19 kph)
0.00 in
(0.00 mm)
10SM
11:02
Overcast
36°F / 2°C 32°F / 0°C 87% 29.92 in
(1013 mb)
NW 12.7 mph
(NW 20 kph)
0.00 in
(0.00 mm)
10SM
10:54
Overcast
36°F / 2°C 32°F / 0°C 87% 29.92 in
(1013 mb)
NW 16.1 mph
(NW 26 kph)
0.00 in
(0.00 mm)
10SM
09:54
Overcast
Light Rain
36°F / 2°C 34°F / 1°C 93% 29.92 in
(1013 mb)
NW 12.7 mph
(NW 20 kph)
0.00 in
(0.00 mm)
10SM
09:45
Overcast
Light Rain
36°F / 2°C 34°F / 1°C 93% 29.92 in
(1013 mb)
NW 12.7 mph
(NW 20 kph)
0.00 in
(0.00 mm)
10SM
08:54
Overcast
36°F / 2°C 34°F / 1°C 93% 29.89 in
(1012 mb)
NW 10.4 mph
(NW 17 kph)
0.00 in
(0.00 mm)
9SM
07:54
Overcast
Fog And Mist
36°F / 2°C 34°F / 1°C 93% 29.89 in
(1012 mb)
NW 12.7 mph
(NW 20 kph)
0.01 in
(0.25 mm)
6SM
07:30
Overcast
36°F / 2°C 34°F / 1°C 93% 29.86 in
(1011 mb)
NW 16.1 mph
(NW 26 kph)
0.00 in
(0.00 mm)
7SM
06:54
Overcast
37°F / 3°C 34°F / 1°C 87% 29.83 in
(1010 mb)
NW 9.2 mph
(NW 15 kph)
0.01 in
(0.25 mm)
10SM
06:30
Overcast
37°F / 3°C 34°F / 1°C 87% 29.83 in
(1010 mb)
NW 12.7 mph
(NW 20 kph)
0.01 in
(0.25 mm)
10SM
05:54
Overcast
37°F / 3°C 34°F / 1°C 87% 29.8 in
(1009 mb)
NW 12.7 mph
(NW 20 kph)
0.00 in
(0.00 mm)
10SM
04:54
Overcast
37°F / 3°C 34°F / 1°C 87% 29.77 in
(1008 mb)
NW 10.4 mph
(NW 17 kph)
0.01 in
(0.25 mm)
10SM
03:54
Overcast
Light Rain
37°F / 3°C 36°F / 2°C 93% 29.74 in
(1007 mb)
WNW 8.1 mph
(WNW 13 kph)
0.01 in
(0.25 mm)
8SM
03:06
Overcast
39°F / 4°C 34°F / 1°C 81% 29.74 in
(1007 mb)
W 13.8 mph
(W 22 kph)
- 10SM
02:54
Overcast
39°F / 4°C 36°F / 2°C 87% 29.74 in
(1007 mb)
W 11.5 mph
(W 19 kph)
- 10SM
01:54
Overcast
39°F / 4°C 36°F / 2°C 87% 29.71 in
(1006 mb)
W 15 mph
(W 24 kph)
- 10SM
00:54
Overcast
39°F / 4°C 36°F / 2°C 87% 29.71 in
(1006 mb)
SSW 12.7 mph
(SSW 20 kph)
- 10SM
Time Weather Temperature Dewpoint Humidity Pressure Winds Precip Visibility


Weather for websites

WeatherForYou.com, LLC is not responsible for any damages or problems caused by this service. Current weather conditions are obtained from the closest station including government and personal stations which may have varying degrees of accuracy. Weather forecasts are derived from the NOAA NDFD. Like all things, this site belongs to Jesus Christ... He just trusts me to maintain it. If you have any questions or comments email webmaster@weatherforyou.com

Copyright © 2014, WeatherForYou.com LLC. All rights reserved.